This is the latest recevied weather packets stored in our database for station/object KB3UQE. If no packets are shown the sender has not sent any weather packets the latest 10 day(s).
| Time | Temp. | Humidity | Pressure | Rain* | Wind** | Luminosity | Snow |
|---|---|---|---|---|---|---|---|
| 1777471507 | 19.44° C | 46% | 1013.1 hPa | - | - | - | - |
| 1777470652 | 17.22° C | 49% | 1013.1 hPa | - | - | - | - |
| 1777470247 | 17.22° C | 49% | 1013.1 hPa | - | - | - | - |
| 1777469392 | 16.67° C | 49% | 1013.6 hPa | - | - | - | - |
| 1777468987 | 16.67° C | 49% | 1013.6 hPa | - | - | - | - |
| 1777468132 | 16.11° C | 50% | 1013.7 hPa | - | - | - | - |
| 1777467727 | 16.11° C | 50% | 1013.7 hPa | - | - | - | - |
| 1777466871 | 16.11° C | 50% | 1013.7 hPa | - | - | - | - |
| 1777466466 | 16.11° C | 50% | 1013.7 hPa | - | - | - | - |
| 1777465611 | 15.56° C | 50% | 1013.6 hPa | - | - | - | - |
| 1777465206 | 15.56° C | 50% | 1013.6 hPa | - | - | - | - |
| 1777464351 | 15.56° C | 50% | 1013.9 hPa | - | - | - | - |
| 1777463945 | 15.56° C | 50% | 1013.9 hPa | - | - | - | - |
| 1777463090 | 15° C | 50% | 1013.9 hPa | - | - | - | - |
| 1777462685 | 15° C | 50% | 1013.9 hPa | - | - | - | - |
| 1777461831 | 14.44° C | 51% | 1013.8 hPa | - | - | - | - |
| 1777461425 | 14.44° C | 51% | 1013.8 hPa | - | - | - | - |
| 1777460570 | 14.44° C | 51% | 1013.8 hPa | - | - | - | - |
| 1777460165 | 14.44° C | 51% | 1013.8 hPa | - | - | - | - |
| 1777459310 | 13.89° C | 51% | 1014 hPa | - | - | - | - |
| 1777458905 | 13.89° C | 51% | 1014 hPa | - | - | - | - |
| 1777458050 | 13.89° C | 52% | 1013.9 hPa | - | - | - | - |
| 1777457644 | 13.89° C | 52% | 1013.9 hPa | - | - | - | - |
| 1777456790 | 13.89° C | 52% | 1013.9 hPa | - | - | - | - |
| 1777456384 | 13.89° C | 52% | 1013.9 hPa | - | - | - | - |
* Rain since midnight (hover to see other rain measurements)
** Current wind speed in m/s (hover to see current wind gust speed)